Погода в Иновроцлаве

Польша     52°46′53″N   18°14′48″E
темп.,
°C
ветер,
м/с
пор.,
м/с
влажн.,
%
обл.,
%
осадки,
мм/ч
давл.,
гПа
погр.,
м
26 февраля, пт
пт2601:00+8зсз49920 0.0 1026173
04:00+7з349422 0.0 102560
07:00+6зсз379561 0.0 1025176
10:00+6з4787100 1.9 1025425
13:00+8зсз5975100 4.0 1025592
16:00+8зсз4970100 0.0 1025672
19:00+6зсз51278100 0.0 1026586
22:00+5зсз6138561 0.0 1026682
27 февраля, сб
сб2701:00+3зсз6148852 0.0 1027490
04:00+4сз7128693 0.0 1027695
07:00+3зсз6109078 0.0 1028448
10:00+5сз698334 0.0 1030570
13:00+8сз686521 0.0 10311184
16:00+7ссз47666 0.0 10321005
19:00+3ссз48813 0.0 1033200
22:00+1сз37880 0.0 1034154
28 февраля, вс
вс2801:000сз34880 0.0 103590
04:000зсз358533 0.0 1034118
07:00+1зсз368367 0.0 1034136
10:00+5з466729 0.0 1034315
13:00+8зсз467514 0.0 1034542
16:00+8зсз47791 0.0 1033605
19:00+3ссз35938 0.0 1034116
22:00+3с359172 0.0 1034204
1 марта, пн
пн101:00+2ссз239354 0.0 103540
04:00+1ссз23940 0.0 103536
07:000ссз22930 0.0 103626
10:00+5ссв11750 0.0 1036242
13:00+8сз11630 0.0 1037417
16:00+9зсз12670 0.0 103691
19:00+5с01780 0.0 103722
22:00+4юз12820 0.0 103722
2 марта, вт
вт201:00+3ююз22850 0.0 103722
04:00+2ююз22860 0.0 103722
07:00+2ююз22890 0.0 103622
10:00+6ю23750 0.0 1036236
13:00+10ю34600 0.0 1035528
16:00+9ююв35620 0.0 1033357
19:00+5ююв23730 0.0 103225
22:00+4ююз23820 0.0 103223